Location: Hermaringen
(48.5952°N, 10.2585°E)
Time: 06:07:12
(UTC+00:00)

ATLAS 2AS CENTAUR R/B - Pass Details

Date: 18 November 2025
Orbit: 1047 x 1163 km, 63.7° (Epoch: 10 December)

Event Time Altitude Azimuth Distance (km) Brightness Sun altitude
Rises 17:31:03 0° 316° (NW) 3,858 6.1 -18.8°
Reaches altitude 10° 17:33:53 10° 324° (NW) 2,889 5.3 -19.2°
Maximum altitude 17:40:19 43° 34° (NE) 1,447 3.1 -20.3°
Enters shadow 17:42:15 35° 72° (ENE) 1,627 3.1 -20.6°
